[[{"header":{"parameterUnit":"m.s-1","parameterCategory":1,"la1":30.2991,"la2":30.254,"lo1":-89.0895,"lo2":-89.0444,"dy":0.0017,"dx":0.0017,"nx":28,"ny":28,"refTime":"2024-06-13T09:00:00:Z","depth":0,"parameterNumber":2,"parameterNumberName":"U-component_of_WINDS"},"data":[0,0,0,0,0,0,0,0,0,0,0,0,0,0,0,0,0,0,0,0,0,0,0,0,0,0,0,0,0,0,0,0,0,0,0,0,0,0,0,0,0,0,0,0,0,0,0,0,0,0,0,0,0,0,0,0,0,0,0.1486,0.1486,0,0.1575,0.1576,0.1577,0.1631,0.1631,0.1631,0.1632,0.1724,0.1727,0.1729,0,0,0,0,0,0,0,0,0,0,0,0,0,0.1363,0.1365,0.1485,0.1487,0.1488,0.1574,0.1576,0.1577,0.1631,0.1631,0.1631,0.1632,0.1724,0.1726,0.1729,0,0,0,0,0,0,0,0,0,0,0,0,0,0.143,0.1365,0.1485,0.1525,0.1529,0.1574,0.1576,0.1577,0.1631,0.1631,0.1631,0.1632,0.1723,0.1726,0.1729,0.1742,0,0,0.174,0.1741,0,0,0,0,0,0,0,0,0.1426,0.1435,0.1518,0.1522,0.1527,0.1592,0.1566,0.1632,0.1631,0.1592,0.1632,0.1632,0.168,0.1687,0.1703,0.1746,0.175,0.174,0.1742,0.1743,0.1744,0,0,0,0,0,0,0,0.1421,0.1431,0.1521,0.1519,0.1525,0.1538,0.1549,0.1579,0.1633,0.1596,0.16,0.1609,0.1683,0.1699,0.1705,0.1752,0.174,0.1743,0.1745,0.1746,0.1809,0.1809,0,0,0,0,0,0,0.141,0.1427,0.1518,0.1523,0.1477,0.154,0.1552,0.1571,0.1633,0.1643,0.1609,0.1612,0.1694,0.1701,0.1709,0.1727,0.1743,0.1746,0.1748,0.1809,0.1809,0.1808,0,0,0,0,0,0,0.1408,0.1418,0.1514,0.1476,0.149,0.1542,0.1563,0.1572,0.1589,0.1643,0.1653,0.1616,0.1694,0.1704,0.1733,0.1731,0.1748,0.1751,0.181,0.1809,0.1809,0.1763,0,0,0,0,0,0,0.1404,0.1417,0.1422,0.1476,0.1491,0.1536,0.1563,0.1574,0.1595,0.1599,0.1652,0.1661,0.1695,0.1728,0.1736,0.1736,0.1754,0.181,0.1809,0.1809,0.1765,0.1761,0.1758,0,0,0,0,0,0.1399,0.1406,0.1422,0.1433,0.1499,0.1536,0.1545,0.1583,0.1594,0.16,0.1634,0.166,0.173,0.173,0.174,0.1741,0.181,0.181,0.1809,0.1767,0.1762,0.1758,0,0,0,0,0,0,0.1351,0.1414,0.1432,0.1457,0.1491,0.1545,0.1554,0.1577,0.1609,0.1612,0.1659,0.167,0.1694,0.1721,0.172,0.1756,0.1773,0.1774,0.1737,0.1733,0.173,0.1723,0.1756,0,0,0,0,0,0.1343,0.1368,0.1422,0.1438,0.1454,0.1501,0.1519,0.1545,0.1582,0.1597,0.1634,0.1669,0.1699,0.1718,0.1748,0.1769,0.1781,0.1775,0.1771,0.1768,0.1768,0.178,0.1777,0.1806,0.1806,0.1806,0,0,0.1328,0.1365,0.1378,0.143,0.1459,0.1483,0.1513,0.1538,0.1556,0.1601,0.163,0.1658,0.1701,0.1725,0.1738,0.1748,0.1763,0.1767,0.1764,0.1766,0.1779,0.1776,0.1774,0.1805,0.1805,0.1806,0,0,0.1311,0.1342,0.1359,0.1388,0.1431,0.1462,0.1466,0.1517,0.1537,0.1566,0.16,0.1623,0.1674,0.1703,0.1724,0.1717,0.1741,0.1726,0.1707,0.1718,0.1715,0.1713,0.171,0.1708,0.1726,0.1726,0.1726,0,0.1286,0.1324,0.1365,0.1387,0.1409,0.145,0.1467,0.1493,0.1544,0.1558,0.1568,0.1632,0.1664,0.1695,0.1693,0.1709,0.1715,0.172,0.1712,0.1711,0.171,0.1707,0.1706,0.1724,0.1724,0.1724,0.1724,0,0.1291,0.1317,0.1325,0.1373,0.1395,0.1415,0.1458,0.1476,0.15,0.153,0.1559,0.1598,0.1637,0.1646,0.1671,0.1681,0.1685,0.1703,0.1721,0.1704,0.1702,0.1702,0.172,0.1721,0.1722,0.1722,0,0,0.1247,0.1316,0.1319,0.134,0.1391,0.1412,0.1433,0.147,0.1484,0.1518,0.1537,0.1578,0.1595,0.1619,0.1647,0.1657,0.1647,0.1674,0.1675,0.1666,0.1659,0.1645,0.1643,0.1664,0.1664,0.1664,0.1655,0,0.1238,0.1278,0.1314,0.134,0.1364,0.1403,0.1421,0.1454,0.1482,0.1507,0.1538,0.1566,0.1587,0.1601,0.1612,0.1646,0.1646,0.1647,0.1681,0.1682,0.1669,0.1642,0.1627,0.1617,0.1655,0.1655,0.1655,0,0.1232,0.1263,0.1292,0.1339,0.1351,0.1367,0.1403,0.1426,0.1464,0.1484,0.1509,0.1538,0.1563,0.1578,0.1612,0.1611,0.1627,0.1646,0.1646,0.1651,0.1667,0.1645,0.1615,0.1613,0.1654,0.1654,0.1654,0,0.1196,0.1245,0.1269,0.1286,0.1342,0.1352,0.1376,0.1415,0.1434,0.1466,0.1479,0.1514,0.1532,0.1558,0.1596,0.1604,0.1625,0.1644,0.1641,0.164,0.1644,0.1643,0.1615,0.1655,0.1655,0.1655,0.1655,0,0.1181,0.1197,0.1253,0.1267,0.1286,0.1327,0.1345,0.1372,0.1406,0.1426,0.1462,0.148,0.1528,0.1552,0.1582,0.1604,0.1613,0.1629,0.1637,0.1626,0.1623,0.1636,0.1638,0.1655,0.1655,0.1655,0.1655,0,0.1144,0.1182,0.121,0.126,0.1273,0.1284,0.1328,0.1343,0.1373,0.1397,0.1406,0.1452,0.1482,0.1522,0.1565,0.1585,0.1603,0.1615,0.159,0.1594,0.1589,0.1588,0.1568,0.1567,0.1608,0.1608,0.1607,0,0.1131,0.1144,0.1196,0.1211,0.1234,0.1259,0.1279,0.132,0.1339,0.1383,0.1392,0.1425,0.1453,0.1499,0.1536,0.1569,0.1582,0.1573,0.1587,0.1575,0.1581,0.1579,0.158,0.1569,0.1568,0.1568,0.1567,0,0.1105,0.1123,0.115,0.1183,0.1205,0.1234,0.1264,0.1275,0.1322,0.1342,0.1372,0.1394,0.1437,0.1468,0.1505,0.153,0.1556,0.1562,0.1563,0.1551,0.1536,0.1543,0.1579,0.1562,0.1563,0.1563,0.1563,0.1564,0.1079,0.1092,0.1129,0.1158,0.1185,0.1212,0.1228,0.1259,0.1285,0.1323,0.1346,0.1375,0.1412,0.1464,0.1488,0.1511,0.1522,0.1523,0.1524,0.1523,0.1519,0.1532,0.1519,0.1519,0.1519,0.1519,0.1519,0,0.1053,0.1079,0.1105,0.1146,0.1168,0.119,0.1224,0.1241,0.1266,0.1298,0.1325,0.1359,0.139,0.1429,0.1462,0.1473,0.1486,0.1481,0.148,0.1485,0.1508,0.1504,0.147,0.147,0.147,0.147,0.147,0.147,0.1042,0.1065,0.1087,0.1123,0.1149,0.1177,0.1195,0.122,0.1245,0.1282,0.1307,0.1332,0.1368,0.1403,0.1432,0.1443,0.1453,0.1444,0.1458,0.1479,0.1484,0.1488,0.1484,0.1446,0.1446,0.1433,0.1433,0.1432]},{"header":{"parameterUnit":"m.s-1","parameterCategory":1,"la1":30.2991,"la2":30.254,"lo1":-89.0895,"lo2":-89.0444,"dy":0.0017,"dx":0.0017,"nx":28,"ny":28,"refTime":"2024-06-13T09:00:00:Z","depth":0,"parameterNumber":3,"parameterNumberName":"V-component_of_WINDS"},"data":[0,0,0,0,0,0,0,0,0,0,0,0,0,0,0,0,0,0,0,0,0,0,0,0,0,0,0,0,0,0,0,0,0,0,0,0,0,0,0,0,0,0,0,0,0,0,0,0,0,0,0,0,0,0,0,0,0,0,3.4998,3.4997,0,3.4967,3.4967,3.4966,3.4941,3.494,3.494,3.494,3.4905,3.4904,3.4903,0,0,0,0,0,0,0,0,0,0,0,0,0,3.5031,3.503,3.4998,3.4997,3.4997,3.4967,3.4967,3.4966,3.4941,3.494,3.494,3.494,3.4905,3.4904,3.4903,0,0,0,0,0,0,0,0,0,0,0,0,0,3.501,3.503,3.4998,3.4981,3.4979,3.4967,3.4967,3.4966,3.4941,3.494,3.494,3.494,3.4905,3.4904,3.4903,3.4905,0,0,3.49,3.4899,0,0,0,0,0,0,0,0,3.5011,3.5009,3.4984,3.4982,3.498,3.4957,3.4965,3.4945,3.4941,3.4955,3.494,3.4939,3.4922,3.492,3.4915,3.4903,3.4902,3.49,3.4899,3.4899,3.4898,0,0,0,0,0,0,0,3.5013,3.501,3.4985,3.4983,3.4981,3.4974,3.497,3.4962,3.4941,3.4954,3.4952,3.4949,3.4921,3.4916,3.4914,3.4901,3.49,3.4899,3.4898,3.4898,3.4889,3.4889,0,0,0,0,0,0,3.5017,3.5011,3.4986,3.4985,3.4995,3.4973,3.4969,3.4965,3.4941,3.4937,3.4949,3.4948,3.4918,3.4915,3.4912,3.4912,3.4899,3.4898,3.4897,3.4889,3.4889,3.489,0,0,0,0,0,0,3.5018,3.5015,3.4988,3.4997,3.4993,3.4973,3.4968,3.4964,3.4959,3.4938,3.4934,3.4948,3.4917,3.4914,3.4907,3.4911,3.4897,3.4896,3.4888,3.4889,3.4889,3.4913,0,0,0,0,0,0,3.5019,3.5016,3.5017,3.4998,3.4993,3.4984,3.4968,3.4964,3.4958,3.4956,3.4935,3.4931,3.4917,3.4909,3.4906,3.4909,3.4896,3.4888,3.4888,3.4889,3.4912,3.4914,3.4917,0,0,0,0,0,3.502,3.5024,3.5017,3.5014,3.4994,3.4984,3.4981,3.4965,3.4958,3.4959,3.4945,3.4932,3.4911,3.4908,3.4905,3.4908,3.4887,3.4888,3.4889,3.4911,3.4914,3.4916,0,0,0,0,0,0,3.5042,3.5021,3.5013,3.5011,3.5,3.498,3.498,3.4969,3.4959,3.4957,3.4937,3.4932,3.4927,3.4917,3.4914,3.4908,3.4898,3.4898,3.4915,3.4918,3.492,3.4922,3.4895,0,0,0,0,0,3.5047,3.5042,3.5023,3.5023,3.5018,3.5,3.4995,3.4984,3.4971,3.4966,3.4952,3.4939,3.4929,3.4923,3.4913,3.4911,3.4905,3.4911,3.4913,3.4916,3.4915,3.4913,3.4915,3.4892,3.4892,3.4892,0,0,3.5057,3.5044,3.5042,3.5027,3.5017,3.5011,3.4996,3.499,3.4986,3.4964,3.4957,3.4947,3.4931,3.4926,3.4924,3.4917,3.4921,3.4917,3.4918,3.4917,3.4914,3.4916,3.4918,3.4893,3.4893,3.4893,0,0,3.5071,3.5061,3.506,3.5051,3.5037,3.5025,3.5025,3.5007,3.4999,3.4992,3.4976,3.497,3.4954,3.4943,3.4936,3.4947,3.4934,3.4944,3.4956,3.4954,3.4956,3.4957,3.496,3.4962,3.4945,3.4945,3.4945,0,3.5084,3.5075,3.506,3.5056,3.5049,3.5032,3.503,3.5021,3.5004,3.5,3.4994,3.4974,3.4962,3.4954,3.4957,3.4952,3.495,3.4946,3.4957,3.4958,3.4959,3.4962,3.4964,3.4946,3.4946,3.4946,3.4946,0,3.5092,3.5086,3.5087,3.5072,3.5066,3.5062,3.5046,3.5041,3.5031,3.502,3.5013,3.4998,3.4985,3.4983,3.4972,3.4974,3.497,3.4961,3.495,3.4963,3.4965,3.4966,3.4948,3.4947,3.4947,3.4947,0,0,3.5117,3.5095,3.5096,3.5089,3.5072,3.5067,3.5063,3.5052,3.5048,3.5037,3.5032,3.502,3.5011,3.5003,3.4991,3.4989,3.4998,3.498,3.4979,3.4983,3.4999,3.5005,3.5007,3.4991,3.4991,3.4991,3.5,0,3.5128,3.5121,3.5107,3.5104,3.5098,3.5082,3.5078,3.5067,3.5057,3.505,3.5038,3.5029,3.5019,3.5014,3.5011,3.4998,3.5001,3.4997,3.4985,3.4984,3.4988,3.5008,3.5014,3.5023,3.5,3.5001,3.5001,0,3.5139,3.513,3.5127,3.5111,3.5108,3.5105,3.5094,3.5087,3.5074,3.5067,3.5058,3.5046,3.504,3.503,3.5021,3.5019,3.5013,3.5006,3.5006,3.5003,3.4993,3.5005,3.5026,3.5027,3.5002,3.5002,3.5002,0,3.5157,3.5144,3.5141,3.5135,3.5117,3.5115,3.5108,3.5094,3.5089,3.5078,3.5074,3.5063,3.5056,3.5047,3.5032,3.5027,3.5024,3.5013,3.5016,3.5017,3.5015,3.5015,3.5035,3.5014,3.5014,3.5014,3.5014,0,3.517,3.5168,3.5149,3.5146,3.5143,3.5128,3.5126,3.5116,3.5105,3.5099,3.5085,3.508,3.506,3.5053,3.504,3.5034,3.5031,3.5024,3.5021,3.5025,3.5026,3.502,3.5018,3.5014,3.5014,3.5014,3.5014,0,3.5189,3.5176,3.5171,3.5155,3.515,3.5149,3.5135,3.5131,3.5121,3.5114,3.5112,3.5094,3.5085,3.5069,3.5054,3.5046,3.5042,3.5037,3.5046,3.5044,3.5048,3.5047,3.5063,3.5064,3.5043,3.5044,3.5044,0,3.5197,3.5195,3.518,3.5176,3.5169,3.5163,3.5157,3.5142,3.5136,3.5122,3.512,3.511,3.5101,3.5086,3.5071,3.506,3.5054,3.506,3.5052,3.5056,3.5053,3.5053,3.5052,3.5062,3.5062,3.5062,3.5063,0,3.5213,3.5207,3.52,3.5191,3.5185,3.5177,3.5168,3.5165,3.5148,3.5142,3.5133,3.5126,3.5112,3.5102,3.5089,3.5079,3.5068,3.5066,3.5066,3.5069,3.5075,3.5071,3.5051,3.5065,3.5065,3.5065,3.5064,3.5064,3.5226,3.5224,3.5213,3.5206,3.5198,3.519,3.5186,3.5175,3.5168,3.5156,3.5148,3.5139,3.5126,3.5108,3.5099,3.5091,3.5086,3.5086,3.5086,3.5086,3.5087,3.5077,3.5089,3.5089,3.5089,3.5089,3.5089,0,3.5241,3.5233,3.5227,3.5215,3.5209,3.5201,3.5191,3.5186,3.5179,3.5169,3.5161,3.515,3.514,3.5125,3.5114,3.5111,3.5105,3.5108,3.5107,3.5105,3.5093,3.5094,3.5113,3.5113,3.5113,3.5113,3.5113,3.5113,3.5248,3.5244,3.5236,3.5228,3.522,3.5213,3.5207,3.52,3.5191,3.5181,3.5173,3.5164,3.5152,3.5139,3.513,3.5125,3.5121,3.5126,3.512,3.5108,3.5106,3.5104,3.5105,3.5126,3.5126,3.5133,3.5133,3.5133]}]]